Flag for Germany Weather past 2 weeks in Apolda, Thuringia, Germany

Now
68 °F

Passing clouds.


Feels Like: 68 °F
Forecast: 56 / 73 °F
Wind: 3 mph from West

Location: Erfurt-Bindersleben

Current Time: Aug 28, 2014 at 1:56:01 PM

Latest Report: Aug 28, 2014 at 1:00 PM


Visibility: 47 mi

Pressure: 30.05 "Hg

Humidity: 51%

Dew point: 49 °F

Location of ApoldaLocation

Historic Weather in Apolda — Graph

°F

Apolda temperature yesterday

Maximum temperature yesterday: 66 °F (at 5:00 PM)
Minimum temperature yesterday: 50 °F (at 7:00 AM)
Average temperature yesterday: 57 °F

Past Weeks' High & Low Weather Summary

 TemperatureHumidityPressure
High71 °F (Aug 13, 2:00 PM)98% (Aug 27, 2:00 AM)30.10 "Hg (Aug 27, 2:00 AM)
Low42 °F (Aug 21, 6:00 AM)36% (Aug 22, 3:00 PM)29.63 "Hg (Aug 13, 4:00 PM)
Average56 °F76%29.92 "Hg
* Reported Aug 13 12:00 Noon — Aug 28 12:00 Noon, Apolda, Weather by CustomWeather, © 2014

Note: Actual official high and low records may vary slightly from our data, if they occured in-between our weather recording intervals... More about our weather records

Advertising

Apolda weather history for previous 24 hours

 ConditionsComfort  
Time TempWeatherWind HumidityBarometerVisibility
12:00 PM
Aug 28
67 °FPassing clouds.3 mph52%30.06 "Hg47 mi
11:00 AM64 °FPassing clouds.1 mph61%30.07 "Hg47 mi
10:00 AM58 °FPassing clouds.1 mph68%30.09 "Hg47 mi
9:00 AM53 °FPassing clouds.3 mph82%30.09 "Hg47 mi
8:00 AM48 °FPassing clouds.5 mph90%30.10 "Hg43 mi
7:00 AM46 °FScattered clouds.3 mph92%30.10 "Hg43 mi
6:00 AM46 °FPassing clouds.3 mph92%30.09 "Hg43 mi
5:00 AM46 °FPassing clouds.5 mph92%30.10 "Hg43 mi
4:00 AM46 °FPassing clouds.3 mph93%30.10 "Hg43 mi
3:00 AM47 °FClear.3 mph92%30.10 "Hg43 mi
2:00 AM47 °FClear.3 mph92%30.10 "Hg43 mi
1:00 AM49 °FClear.3 mph87%30.09 "Hg43 mi
12:00 AM51 °FClear.3 mph84%30.09 "Hg43 mi
11:00 PM
Aug 27
53 °FClear.3 mph83%30.08 "Hg47 mi
10:00 PM57 °FClear.2 mph67%30.07 "Hg47 mi
9:00 PM60 °FPassing clouds.2 mph55%30.05 "Hg47 mi
8:00 PM63 °FPassing clouds.2 mph50%30.03 "Hg47 mi
7:00 PM63 °FPassing clouds.2 mph51%30.02 "Hg47 mi
6:00 PM65 °FPassing clouds.2 mph44%30.01 "Hg47 mi
5:00 PM66 °FScattered clouds.2 mph40%30.00 "Hg47 mi
4:00 PM66 °FScattered clouds.3 mph43%30.01 "Hg47 mi
3:00 PM64 °FScattered clouds.2 mph50%30.01 "Hg47 mi
2:00 PM63 °FScattered clouds.3 mph54%30.01 "Hg47 mi
1:00 PM62 °FScattered clouds.2 mph55%30.01 "Hg31 mi
Weather by CustomWeather, © 2014

See weather overviewHow to use our weather pages